Location: Clarion
(42.7316°N, 93.7330°W)
Time: 01:00:58
(UTC+00:00)

Sich 1 - Pass Details

Date: 22 April 2026
Orbit: 570 x 598 km, 82.5° (Epoch: 20 May)

Event Time Altitude Azimuth Distance (km) Brightness Sun altitude
Rises 10:23:42 0° 345° (NNW) 2,791 6.6 -10.7°
Reaches altitude 10° 10:25:57 10° 340° (NNW) 1,885 5.6 -10.4°
Maximum altitude 10:29:55 46° 267° (W) 772 3.2 -9.7°
Drops below altitude 10° 10:33:52 10° 194° (SSW) 1,865 5.1 -9.1°
Sets 10:36:05 0° 188° (S) 2,758 6.1 -8.7°
